www.pogodaiklimat.ru

Погода и климат >> Архив погоды >> Россия >> Якутия >> Усть-Куйга


ПОГОДА в Усть-Куйге

  • Прогноз погоды в Усть-Куйге
  • Монитор погоды в Усть-Куйге

АРХИВ ПОГОДЫ в Усть-Куйге

Время (UTC), дата Ветер
(напр.,м/с)
 
Видим.   Явления Облачность Т
(С)
Тd
(С)
f
(%)
Тe
(С)
Тes
(С)
Комфортность P
(гПа)
Po
(гПа)
Тmin
(С)
Tmax
(С)
R
(мм)
R24
(мм)
S
(см)
18 12.06 СВ 4 н/о н/о +14.5 +5.9 56 +13 +13 1000.9 990.0
21 12.06 штиль 0 4000 м дым {туман} ясно +18.4 +10.9 62 +19 +23 1001.5 990.7 +13.7
00 13.06 ЮЗ 3 4000 м дым {туман} ясно +25.1 +4.7 27 +25 +31 комфорт 1001.5 991.0
03 13.06 ЮЗ 2 20 км дым ясно +28.1 +1.2 18 +26 +37 жарко 1001.3 990.9
06 13.06 С 10-15
{15}
50 км 8/0
[Ac As]
+22.5 +10.8 48 +25 +25 комфорт 1002.5 991.9
09 13.06 С 7
{15}
50 км 4/0
[Ac lent]
+15.9 +9.1 64 +14 +15 1007.9 996.9 +30.9
12 13.06 С 7-10
{12}
н/о н/о +9.3 +6.5 83 +5 +5 1011.5 1000.3
15 13.06 С 4
{14}
н/о н/о +5.1 +2.1 81 +1 +1 1013.3 1001.9
18 13.06 СВ 2 н/о н/о +3.3 +0.1 80 0 0 1014.6 1003.1
21 13.06 С 4 50 км 8/4 600 м
[Sc Ac As]
+5.7 +2.3 79 +2 +3 1014.7 1003.2 +2.9
00 14.06 С 2 50 км 5/3 1500 м
[Sc Ac As]
+8.5 +2.0 64 +7 +11 1014.8 1003.5
03 14.06 В 2 50 км 6/3 1500 м
[Sc Ac As]
+12.8 +3.7 54 +12 +17 1014.3 1003.2
06 14.06 В 2 50 км 6/0
[Ac lent Ci fib]
+15.2 +4.8 50 +15 +21 1013.1 1002.1
09 14.06 В 3 50 км 5/0
[Ac lent Ci fib]
+15.9 +7.0 55 +16 +17 1013.6 1002.5 +17.2
12 14.06 СВ 4 н/о н/о +11.6 +6.7 72 +10 +10 1013.4 1002.3
15 14.06 С 4 н/о н/о +7.3 +5.0 85 +4 +4 1014.1 1002.8
18 14.06 СВ 2 н/о н/о +8.2 +5.5 83 +6 +6 1013.7 1002.5
21 14.06 штиль 0 н/о н/о +12.7 +7.9 73 +12 +12 1013.4 1002.3 +6.9
00 15.06 СВ 1 50 км 3/0
[Ci fib]
+18.4 +5.0 41 +20 +29 1012.4 1001.5
03 15.06 С 2 50 км 3/0
[Ac trans]
+23.6 +2.2 25 +23 +32 комфорт 1009.9 999.3
06 15.06 Ю 2 50 км 5/3 1500 м
[Cb cap Ac trans]
+27.8 +0.5 17 +26 +30 жарко 1007.8 997.4
09 15.06 З 1 50 км 6/4 1500 м
[Cb cap Ac trans]
+27.0 +5.6 25 +26 +28 жарко 1007.3 996.8 +28.1
12 15.06 С 3 н/о н/о +22.1 +12.7 55 +25 +25 комфорт 1007.6 997.0
15 15.06 В 2 н/о н/о +18.1 +11.1 64 +19 +19 1008.3 997.5
18 15.06 ЮВ 1 н/о н/о +14.2 +10.8 80 +15 +15 1009.4 998.4
21 15.06 штиль 0 н/о н/о +16.6 +12.3 76 +17 +17 1010.0 999.1 +14.0
00 16.06 Ю 2 н/о н/о +24.4 +10.1 40 +25 +25 комфорт 1009.4 998.9
03 16.06 ЮЗ 4 н/о н/о +28.8 +2.7 19 +27 +27 жарко 1008.8 998.3
06 16.06 Ю 2 н/о н/о +30.0 +1.5 16 +27 +27 жарко 1007.9 997.5
09 16.06 З 1 н/о н/о +28.7 +2.2 18 +27 +27 жарко 1007.8 997.4 +30.5
12 16.06 В 2 н/о н/о +25.2 +5.7 29 +25 +25 комфорт 1008.4 997.8
15 16.06 С 4 н/о н/о +18.0 +10.4 61 +18 +18 1009.4 998.6
18 16.06 С 7-11
{11}
н/о н/о +13.8 +8.7 71 +12 +12 1012.7 1001.6
21 16.06 С 6
{12}
н/о н/о +8.6 +6.5 87 +5 +5 1016.9 1005.6 +8.4
00 17.06 С 6-10
{11}
н/о н/о +10.9 +7.8 81 +8 +8 1018.7 1007.5
03 17.06 С 6
{12}
н/о н/о +10.8 +7.5 80 +8 +8 1019.9 1008.7
06 17.06 С 6
{11}
н/о н/о +9.5 +4.8 72 +6 +6 1020.7 1009.4
09 17.06 СВ 3 н/о н/о +9.0 +3.7 69 +7 +7 1020.7 1009.4 +11.3
12 17.06 В 2 н/о н/о +8.2 +5.0 80 +6 +6 1020.6 1009.2
15 17.06 С 4 н/о н/о +4.6 +1.8 82 0 0 1020.8 1009.3
18 17.06 СВ 3 н/о н/о +3.5 -0.4 76 -0 -0 1020.7 1009.2
21 17.06 СВ 4 50 км ясно +7.3 +0.5 62 +4 +6 1020.0 1008.6 +3.3
00 18.06 СВ 5 50 км 3/0
[Ci fib]
+10.2 +1.9 56 +8 +11 1019.2 1007.9
03 18.06 СВ 4 50 км 3/0
[Ac trans]
+14.2 +0.3 39 +13 +19 1017.6 1006.5
06 18.06 СВ 5
{10}
50 км 3/0
[Ci fib]
+17.5 +2.7 37 +17 +21 1015.3 1004.4
09 18.06 СВ 5 50 км ясно +17.8 +4.6 42 +17 +19 1014.1 1003.2 +18.5
12 18.06 СВ 4 н/о н/о +16.1 +9.2 64 +15 +15 1013.3 1002.4
15 18.06 С 4 н/о н/о +11.6 +8.2 80 +9 +9 1013.1 1002.0
18 18.06 СВ 1 н/о н/о +10.6 +7.7 82 +10 +10 1012.6 1001.4
21 18.06 штиль 0 50 км ясно +16.1 +11.1 72 +16 +20 1011.5 1000.6 +9.9
00 19.06 Ю 2 50 км 3/0
[Ac lent]
+22.7 +12.1 51 +25 +31 комфорт 1010.6 999.9
03 19.06 ЮЗ 3 50 км 3/0
[Ac lent]
+27.4 +8.0 29 +27 +34 жарко 1009.6 999.0
06 19.06 Ю 3 50 км 4/0
[Ac trans]
+29.5 +3.9 20 +28 +33 жарко 1007.8 997.4
09 19.06 З 1 4000 м дым {туман} 4/0
[Ac trans]
+27.7 +5.0 23 +26 +29 жарко 1007.7 997.2 +29.6
12 19.06 В 2 н/о н/о +24.9 +9.9 39 +26 +26 жарко 1008.1 997.6
15 19.06 В 2 н/о н/о +20.5 +9.0 48 +23 +23 комфорт 1009.1 998.4

 

Местоположение метеостанции Усть-Куйга (Якутия, Россия): широта 70.00 долгота 135.60 высота над уровнем моря 92 м.

В архиве по умолчанию представлена погода в Усть-Куйге за последнюю неделю. Архивные данные за месяц целиком и за предыдущие месяцы, начиная с января 2011 года, Вы можете получить, выбрав интересующий диапазон дат из раскрывающегося списка и нажав кнопку "Ввод!".


*Определитесь, кто Вы:
робот инопланетянин человек

Внимание! Время в таблицах - всемирное. Для получения местного времени необходимо прибавить поправку, которая равна 10 ч.

Смотрите также архив погоды в соседних городах и на ближайших метеорологических станциях:

Погода в Юбилейной (Якутия, Россия) (89 км)
Погода в Депутатском (Якутия, Россия) (176 км)
Погода в Батагае (Якутия, Россия) (264 км)
Погода в Верхоянске (Якутия, Россия) (284 км)
Погода в Тикси (Якутия, Россия) (301 км)
Погода в Кюсюре (Якутия, Россия) (316 км)
Погода в Батагай-Алыте (Якутия, Россия) (323 км)
Погода на Мысе Быков (Якутия, Россия) (324 км)
Погода в Усть-Чарках (Якутия, Россия) (358 км)
Погода в Екюччю (Якутия, Россия) (395 км)

Пояснения к столбцам:

Ветер - указаны скорость ветра в м/с - средняя за 10 мин, порывы в срок и между сроками (в фигурных скобках) и направление, откуда дует ветер: С - северный, СВ - северо-восточный, В - восточный, ЮВ - юго-восточный, Ю - южный, ЮЗ - юго-западный, З - западный, СЗ - северо-западный.
Видимость - горизонтальная дальность видимости в метрах или километрах. При видимости от 1 до 10 км при отсутствии осадков обычно наблюдается дымка, при ухудшении видимости до 1 км и менее - туман. В сухую погоду видимость может ухудшаться дымом, пылью или мглою.
Явления - указаны атмосферные явления, наблюдавшиеся в срок или в последний час перед сроком; фигурными скобками обозначены явления, наблюдавшиеся между сроками (за 1-3 часа до срока); квадратными скобками обозначены град или гололедные отложения с указанием их диаметра в мм.
Облачность - указаны через наклонную черту общая и нижняя облачность в баллах и высота нижней границы облаков в метрах; квадратными скобками обозначены формы облаков: Ci - перистые, Cs - перисто-слоистые, Cc - перисто-кучевые, Ac - высококучевые, As - высокослоистые, Sc - слоисто-кучевые, Ns - слоисто-дождевые, Cu - кучевые, Cb - кучево-дождевые. Подробнее классификацию облаков см. в Атласе облаков (PDF).
T - Температура воздуха - температура, измеренная на высоте 2 м над землей.
Td - Температура точки росы - температура, при понижении до которой содержащийся в воздухе водяной пар достигнет насыщения.
f - Относительная влажность воздуха - влажноcть воздуха, измеренная на высоте 2 м над землей.
Te - Эффективная температура - температура, которую ощущает одетый по сезону человек в тени. Характеристика душности погоды. При расчете учитывается влияние влажности воздуха и скорости ветра на теплоощущения человека.
Tes - Эффективная температура на солнце - температура, которую ощущает человек, с поправкой на солнечный нагрев. Характеристика знойности погоды. Зависит от высоты солнца над горизонтом, облачности и скорости ветра. Ночью, в пасмурную погоду, а также при ветре 12 м/с и более поправка равна нулю.
P - Атмосферное давление - приведенное к уровню моря атмосферное давление.
Po - Атмосферное давление - измеренное на уровне метеостанции атмосферное давление.
Tmin - Минимальная температура - минимум температуры воздуха на высоте 2 м над землей.
Tmax - Максимальная температура - максимум температуры воздуха на высоте 2 м над землей.
R - Количество осадков - Количество выпавших осадков за период времени, мм. При наведении курсора мыши на число - период времени, за который выпало указанное количество осадков.
R24 - Количество осадков - Количество выпавших осадков за 24 часа, мм.
S - Снежный покров - Высота снежного покрова, см. При наведении курсора мыши на число - состояние снежного покрова и степень покрытия местности в баллах.